Weather in Volhov

Russia / Saint-Petersburg and Leningrad Oblast     59°55′00″N   32°19′53″E
temp.,
°C
wind,
m/s
gust,
m/s
humid.,
%
clouds,
%
prec.,
mm/h
press.,
hPa
HPBL,
m
22 may, sun
sun2200:00+3ene311650 0.0 1013377
03:00+1ene28785 0.0 1013168
06:00+2ene25710 0.0 1014183
09:00+7ne35440 0.0 10131107
12:00+9n56371 0.0 10131422
15:00+10n56375 0.0 10131170
18:00+9n47393 0.0 1012693
21:00+4nnw23645 0.0 101256
23 may, mon
mon2300:00+2nw11785 0.0 101210
03:00+2n237220 0.0 101260
06:00+4n396032 0.0 1012447
09:00+7n510404 0.0 1011677
12:00+9n59310 0.0 1011863
15:00+11nnw510291 0.0 10101245
18:00+12nnw59475 0.0 10091301
21:00+8nnw3970100 0.0 1008260
24 may, tue
tue2400:00+4nne2271100 0.0 100924
03:00+4nnw2956100 0.0 1009322
06:00+5n3955100 0.0 1010611
09:00+6n5958100 0.0 1011908
12:00+6n576598 0.1 10121131
15:00+7n4658100 0.2 10131269
18:00+7nne3561100 0.0 1014922
21:00+6ne2571100 0.0 1015464
25 may, wed
wed2500:00+4nne1476100 0.0 1016126
03:00+4ne137995 0.0 101698
06:00+3ene12815 0.0 1017122
09:00+8nne225713 0.0 1017989
12:00+11nne224714 0.0 10161368
15:00+13nne3344100 0.0 10141343
18:00+10nne3354100 0.0 1014409
21:00+6nne237864 0.0 101352
26 may, thu
thu2600:00+5e2381100 0.0 101271
03:00+5ese2281100 0.0 101032
06:00+7ese1272100 0.0 100897
09:00+12se235076 0.0 1006554
12:00+16ese2339100 0.0 10051607
15:00+16e2339100 0.0 10031584
18:00+12wsw2363100 0.0 1002307
21:00+10n1290100 0.6 100237